RH
10 10 11 11 12 11 13 15 14 13 13 13 12 13 14 15 18 20 20 20 21 21 20 20 21 20 20 20 21 21 20 21 21 20 20 20 20 20 20 20 20 20 20 19 20 18 18 20 20 24 26 28 31 27 23 23 23 36 51 54 58 59 52 50 49 50 54 54 54 53 49 44 39 35 33 33 33 32 30 27 24 19 14 13 12 12
10 10 11 11 11 11 12 13 14 14 14 13 13 14 14 15 18 19 19 20 20 20 20 20 20 20 20 20 19 20 21 20 19 20 20 19 19 20 20 21 20 20 21 21 20 19 19 23 25 28 32 32 32 29 24 22 16 28 56 65 58 55 54 53 51 51 54 55 55 54 51 46 40 36 34 34 35 36 35 31 27 22 17 14 12 12
10 10 10 10 11 11 11 12 14 16 15 14 14 14 15 17 17 17 18 19 19 19 20 19 19 19 19 20 20 19 18 19 19 18 18 17 16 18 21 22 21 22 26 25 24 23 24 29 33 34 35 32 28 27 26 23 19 27 54 68 62 55 57 56 52 50 51 53 54 54 52 47 40 37 35 35 35 36 38 39 35 26 20 16 14 14
10 9 9 9 10 10 11 12 13 14 16 16 15 15 16 16 16 19 19 17 18 18 18 18 19 20 20 18 17 19 18 17 18 16 14 14 14 18 22 23 24 27 31 33 31 31 36 40 42 39 35 30 26 27 28 26 24 27 42 53 54 56 61 62 56 49 46 48 51 52 50 45 41 39 37 33 31 32 35 40 42 34 24 19 17 18
11 9 9 8 9 10 10 11 11 12 14 15 15 16 17 16 17 20 19 16 17 17 18 18 16 17 20 20 16 14 17 15 14 14 12 13 15 18 22 25 30 33 35 37 39 45 52 52 46 40 35 31 28 28 28 28 28 30 39 50 55 58 59 56 48 39 38 45 51 51 47 43 41 39 36 30 27 27 30 39 46 39 27 21 20 21
11 11 10 9 9 9 9 10 10 10 11 12 14 14 15 17 16 17 17 16 16 16 15 14 19 23 19 20 22 15 14 15 14 16 17 18 20 22 28 34 36 39 43 50 56 62 61 51 44 42 40 36 35 32 27 25 29 31 34 40 46 47 41 35 30 28 35 43 45 45 42 40 39 38 34 30 28 26 30 42 53 46 29 22 24 30
13 12 11 11 10 8 9 9 8 9 9 9 10 11 13 13 13 15 13 13 17 21 22 15 25 45 35 21 26 22 17 22 24 28 30 31 34 37 43 48 51 58 64 67 69 67 56 47 47 48 44 42 40 37 29 24 26 28 25 24 30 32 27 21 21 25 30 33 35 37 38 37 35 32 28 28 29 26 24 33 50 51 34 22 23 30
15 14 12 12 11 10 9 8 8 8 7 12 12 10 11 10 12 13 9 17 27 32 38 25 18 49 56 34 30 32 29 33 35 39 45 47 50 54 60 66 72 74 71 64 60 54 47 47 51 51 47 46 44 38 30 24 24 24 23 23 26 29 26 22 22 23 24 27 30 32 32 31 28 24 22 24 28 28 23 21 31 40 36 29 26 27
18 16 15 13 12 12 11 9 10 7 8 17 14 9 10 9 11 9 10 26 29 23 38 32 11 39 66 48 39 44 40 42 43 44 53 58 60 65 74 79 76 70 63 55 51 47 45 48 51 52 49 47 45 40 33 28 27 27 29 31 32 33 31 28 25 25 25 25 25 27 26 25 24 23 24 26 26 27 25 21 21 26 29 29 28 27
19 17 16 15 13 12 12 10 10 8 11 17 12 8 10 10 10 9 17 34 25 13 35 44 24 39 69 60 52 55 48 46 46 45 53 60 65 70 75 74 67 63 59 54 50 48 47 49 50 54 54 49 46 42 38 37 36 36 37 37 37 37 35 33 30 28 27 26 25 25 26 26 27 28 28 29 29 28 27 26 24 23 23 23 24 25
19 18 18 18 15 14 12 12 12 10 12 14 10 9 10 12 11 9 18 29 27 20 30 47 37 36 67 73 60 57 51 49 52 51 53 58 64 69 68 67 64 63 61 58 58 57 53 53 55 58 58 53 48 45 44 44 45 46 43 41 40 40 39 36 34 33 31 29 29 30 31 32 31 32 32 30 30 29 27 27 26 26 25 25 26 26
20 20 20 19 18 17 14 12 13 12 12 12 10 12 15 16 11 17 28 20 21 35 39 51 44 30 60 80 64 58 55 54 61 61 60 62 65 68 67 67 67 67 68 67 64 59 53 51 55 62 64 59 55 52 49 46 45 47 47 45 43 41 42 41 38 37 37 35 36 37 37 35 33 32 30 29 28 28 27 25 23 22 21 24 29 34
24 23 23 22 20 19 17 16 15 12 14 12 12 17 27 35 25 24 41 29 19 41 50 54 44 27 50 69 61 64 64 60 63 64 65 67 67 69 69 68 69 74 77 72 65 55 45 41 44 51 58 63 64 62 58 49 39 41 48 52 50 44 43 45 44 42 42 42 42 40 37 35 34 32 30 31 28 23 21 21 21 19 20 30 42 48
29 27 25 24 23 21 20 20 20 18 17 13 16 21 29 55 53 25 35 47 40 45 48 44 38 32 46 56 53 63 69 66 66 64 66 68 68 71 68 65 68 76 81 76 70 62 52 45 39 37 48 69 80 78 78 73 59 53 58 65 67 63 52 45 46 48 45 45 43 40 39 36 34 31 28 25 21 22 31 38 41 38 39 52 59 54
32 33 33 27 24 26 24 24 25 27 28 22 26 34 34 55 67 39 40 62 55 47 46 41 34 34 47 56 56 62 66 67 68 66 67 69 71 72 69 66 69 75 81 81 77 75 70 61 47 38 46 64 73 74 81 88 84 75 75 82 88 87 75 52 45 51 49 48 45 41 38 34 31 30 29 28 29 40 53 59 62 61 62 70 70 60
36 42 48 41 33 31 30 31 30 28 38 37 30 36 38 48 60 51 48 57 54 50 50 44 34 30 40 53 63 70 67 64 67 68 69 71 71 72 71 70 71 74 79 82 82 82 80 75 66 58 53 50 48 57 70 77 80 82 85 93 96 93 91 74 58 59 59 54 50 48 49 48 45 43 44 48 53 57 62 64 69 71 71 75 73 67
47 48 51 47 42 39 36 38 34 32 50 63 50 37 35 39 47 48 44 41 43 46 45 43 39 34 37 47 60 73 74 69 69 69 70 72 72 73 73 72 73 76 78 82 85 85 85 83 79 73 62 48 37 45 60 62 70 84 86 92 97 92 94 90 75 70 69 63 59 62 65 64 61 57 54 57 59 58 56 58 62 64 65 67 64 59
68 68 66 54 46 45 45 45 43 39 48 69 74 59 48 45 41 43 49 48 45 43 39 42 44 43 45 49 55 66 75 77 77 76 74 75 75 75 77 79 79 81 83 85 87 87 86 84 83 78 60 43 38 40 46 49 65 87 87 87 98 96 94 97 88 77 74 73 74 76 75 72 67 62 57 54 52 50 44 42 47 53 59 58 53 53
80 85 89 76 62 54 52 53 54 49 42 52 65 63 63 66 56 46 47 49 48 47 43 42 43 46 50 53 56 63 74 80 81 82 80 78 78 76 75 76 76 80 82 84 85 82 83 82 80 72 47 34 54 64 52 49 64 84 89 87 95 95 90 92 91 84 80 78 78 81 78 68 53 43 40 38 35 35 31 27 35 49 60 57 50 55
87 88 94 93 82 68 61 58 57 57 50 45 47 51 59 68 69 66 61 55 54 55 53 46 41 45 50 54 58 63 73 83 86 87 86 82 81 78 77 77 77 77 74 70 66 61 64 65 57 56 45 32 52 70 65 66 75 81 87 92 97 97 90 88 90 85 73 60 56 61 60 48 34 25 23 22 21 22 21 20 29 46 59 56 49 52
93 90 94 99 92 81 77 70 63 64 66 60 52 48 48 50 55 64 67 67 69 72 73 64 48 48 56 58 58 57 61 70 76 80 81 80 78 76 76 75 69 62 53 45 41 36 38 40 32 43 54 40 37 48 53 66 81 85 91 97 100 98 90 92 95 82 59 43 40 44 43 36 30 25 21 18 15 14 14 17 28 46 58 58 54 52
94 92 95 97 95 91 87 83 76 72 73 74 69 59 56 58 56 55 57 60 64 68 76 78 68 64 68 65 58 53 50 53 54 54 55 55 53 50 49 47 41 37 32 28 29 29 30 32 25 30 49 55 51 52 49 55 71 87 95 99 101 98 91 93 95 78 56 45 43 44 41 37 34 30 25 21 15 11 11 18 28 37 43 47 48 47
93 96 99 96 97 96 90 89 88 80 73 73 73 71 73 76 72 69 70 68 66 63 61 68 74 76 81 77 66 58 55 55 51 48 46 42 38 36 34 34 33 31 32 31 31 30 29 32 29 28 47 65 67 71 73 70 74 85 92 96 101 101 96 93 89 75 59 51 49 46 43 39 37 34 30 25 19 12 10 14 19 20 22 27 35 41
94 96 97 96 100 98 93 95 92 87 86 83 76 73 77 79 77 78 81 78 81 79 66 61 66 69 73 77 75 71 69 68 65 60 56 50 45 42 39 39 39 35 35 36 37 43 48 50 46 46 61 74 74 79 86 83 83 90 95 98 102 102 98 92 83 73 63 57 54 50 47 45 42 38 33 28 22 15 9 9 10 11 15 21 26 33
96 94 91 94 101 99 96 96 88 82 87 87 83 80 79 79 76 74 75 76 80 83 79 76 75 72 73 75 80 84 82 79 77 71 64 57 51 46 42 45 49 48 47 46 48 65 83 87 84 83 87 89 85 84 84 83 89 95 97 99 101 100 96 88 79 71 65 61 58 56 54 51 46 41 37 33 26 18 12 11 11 11 16 21 23 23
94 95 94 98 102 100 100 99 92 85 82 79 80 84 83 81 78 72 68 70 70 67 73 82 82 83 89 89 87 88 87 84 81 73 66 60 54 47 43 50 63 71 75 71 67 77 91 95 94 92 90 88 85 84 86 91 97 99 100 101 100 97 93 86 78 71 66 63 61 57 53 49 45 41 38 35 31 23 16 13 13 13 13 16 17 16
97 94 96 99 98 96 97 97 94 92 89 85 82 82 81 78 77 73 66 69 72 67 70 80 84 87 95 96 91 88 87 85 81 74 68 61 56 50 45 50 65 82 93 92 86 85 88 89 89 88 85 81 79 80 84 89 92 92 94 97 100 101 96 87 79 72 68 64 58 51 43 39 39 41 42 39 33 27 22 18 16 15 15 15 14 13
94 96 98 101 98 96 94 90 93 99 99 96 90 86 85 80 77 75 69 72 80 78 76 82 88 91 94 95 93 91 88 87 84 78 73 65 59 53 47 45 53 68 80 83 82 81 81 82 84 86 85 82 80 80 80 79 79 77 76 80 88 96 98 93 85 76 69 60 51 42 34 29 29 35 44 47 40 33 28 23 18 16 17 19 18 16
79 86 94 99 100 101 98 92 94 99 97 96 93 89 88 87 86 85 79 75 77 77 79 84 88 93 95 95 96 94 90 90 89 84 80 74 65 57 52 48 46 51 57 61 63 65 67 68 70 74 72 65 62 62 59 55 53 52 54 57 62 69 76 81 79 73 64 54 45 39 32 26 22 21 29 39 42 41 37 33 30 28 28 29 30 27
77 78 81 86 91 97 99 99 101 98 92 93 97 92 88 88 90 92 90 85 80 75 75 76 80 89 97 99 99 97 92 92 91 88 85 80 72 64 59 55 49 46 46 48 52 55 56 55 54 53 48 41 38 38 37 36 36 38 41 44 47 49 53 56 59 60 58 54 50 45 37 30 23 17 16 19 23 27 30 32 34 35 37 40 43 42
85 85 83 80 80 81 85 92 100 100 95 94 98 99 95 91 89 89 88 87 85 80 75 72 73 80 91 97 99 98 95 93 91 90 89 87 81 71 63 59 55 50 45 43 45 49 53 53 48 41 33 29 27 25 26 29 32 34 35 35 35 35 35 36 38 40 43 45 46 44 40 34 28 24 20 17 15 15 15 17 18 21 24 28 34 37
88 90 92 89 83 77 75 80 86 93 98 97 98 100 99 94 90 88 87 87 89 88 83 81 80 82 87 94 99 100 100 97 95 92 92 92 88 78 66 58 52 48 44 40 36 37 39 42 42 37 29 23 20 19 20 21 22 23 25 25 24 23 22 21 21 21 23 25 26 27 27 26 24 22 20 18 17 15 14 13 12 12 13 15 17 19
78 78 82 82 76 67 64 65 68 77 85 87 91 98 100 98 96 94 93 94 96 96 94 92 92 90 90 94 98 101 101 100 100 98 96 96 93 86 76 65 56 50 46 40 37 38 37 31 28 25 21 17 14 13 13 15 18 19 17 16 16 16 17 16 15 15 15 15 16 16 16 17 17 17 17 16 16 15 15 15 13 12 12 12 12 12
54 55 58 58 54 51 52 52 54 62 69 73 82 91 95 97 99 99 99 99 100 101 100 100 98 96 96 99 101 102 102 100 100 100 98 96 92 88 86 80 70 60 53 47 45 49 47 35 21 16 18 20 21 23 28 31 31 27 22 21 22 21 22 22 21 20 19 18 18 17 18 18 18 18 18 18 18 17 17 16 15 14 13 14 15 15
34 36 40 42 41 45 50 49 46 48 57 69 79 81 79 81 86 89 93 95 96 98 99 99 100 99 99 100 100 101 102 101 100 99 96 92 88 86 85 82 76 72 69 66 61 57 55 48 40 40 49 55 56 57 58 54 46 38 32 31 30 29 28 28 27 26 25 24 23 22 22 22 22 22 22 21 21 21 20 19 18 17 15 16 18 20
42 46 50 52 51 53 60 61 51 44 51 63 68 66 65 69 75 80 85 87 88 93 98 100 100 100 100 101 101 101 101 101 101 99 96 91 84 77 74 75 78 81 83 83 81 79 75 72 68 68 73 77 76 71 64 60 60 59 54 48 46 45 43 41 38 36 34 32 30 28 26 26 26 26 25 25 24 24 24 23 22 20 19 20 21 23
83 80 72 66 60 60 68 71 63 57 59 61 59 58 59 64 70 76 81 84 83 85 90 94 95 96 96 96 97 97 97 98 100 101 102 100 91 80 76 76 76 77 80 84 86 86 85 85 83 79 78 82 84 79 70 67 71 75 73 69 66 62 55 50 46 41 38 36 34 31 30 31 32 32 30 29 27 26 26 26 25 22 21 23 25 27
96 87 77 73 65 58 59 59 59 63 66 63 64 66 65 65 69 71 74 78 77 77 81 86 87 88 87 86 86 85 84 84 86 90 95 99 98 93 90 88 82 78 81 85 86 86 92 97 96 87 79 76 74 69 63 60 61 64 65 64 61 56 50 45 42 39 37 35 33 33 34 34 35 35 33 31 29 27 27 27 25 23 24 27 28 25
75 71 73 79 77 69 65 61 60 65 65 62 68 77 80 82 84 83 81 79 76 77 82 84 84 84 82 81 80 79 78 75 73 74 78 82 85 87 88 90 89 86 86 88 88 88 92 94 90 81 74 69 65 61 58 56 55 55 55 53 51 49 46 44 42 40 39 38 36 36 36 36 36 34 32 31 29 27 26 25 23 23 28 34 33 22
61 58 61 66 73 82 86 84 80 77 75 74 76 80 84 86 87 88 85 79 78 83 82 77 76 76 75 76 75 74 74 72 68 69 70 69 70 72 74 77 81 84 86 87 87 86 85 83 80 76 72 69 66 63 61 59 58 57 55 55 54 52 49 47 46 43 41 40 39 38 37 35 34 33 31 29 27 25 24 23 22 22 26 32 30 18
65 63 61 60 66 78 85 89 91 91 92 94 89 81 79 79 82 87 84 78 84 93 87 76 74 74 73 74 73 72 72 70 67 69 69 67 67 67 66 67 68 71 75 77 78 79 78 77 75 73 70 67 64 62 61 60 59 58 57 55 53 51 48 45 43 41 39 38 36 35 34 32 30 28 26 24 21 20 19 18 18 18 18 21 22 13
76 75 73 68 69 73 72 76 82 82 84 90 90 85 85 89 92 95 92 89 93 98 93 86 82 80 78 77 75 75 75 73 71 72 72 72 72 70 67 66 64 62 62 63 64 65 64 64 64 62 61 59 57 56 55 53 52 50 48 46 44 43 41 39 38 37 34 32 29 26 24 22 20 18 16 14 14 13 13 12 12 13 12 14 15 8
81 84 86 82 79 78 77 77 76 70 70 81 89 91 93 98 100 99 99 100 101 100 96 92 88 84 82 81 79 78 77 76 76 76 77 79 80 78 76 74 71 68 65 62 61 60 58 57 55 54 53 52 50 49 48 46 46 44 42 40 38 36 34 32 29 26 23 20 18 15 14 12 11 10 10 12 14 14 14 13 12 13 13 12 13 11
64 76 88 90 87 86 90 91 86 77 75 83 92 97 99 101 101 100 101 102 102 100 97 94 91 88 85 83 82 81 80 79 78 78 77 77 77 76 76 75 74 73 71 69 67 65 62 60 57 56 54 52 50 49 47 45 44 41 39 36 34 33 32 31 29 28 27 26 25 24 25 24 24 24 24 25 27 28 30 29 27 26 25 21 19 19
31 41 54 63 67 71 77 83 85 85 87 90 91 94 98 100 100 101 102 101 100 99 97 94 91 89 87 85 84 84 83 83 83 82 81 80 78 76 74 73 73 72 72 70 69 67 66 64 62 60 59 58 56 54 54 54 55 55 55 56 56 56 55 54 52 51 49 48 48 46 45 45 44 45 46 47 48 50 51 52 51 48 45 41 37 32
15 17 21 26 31 36 42 49 57 65 78 89 95 98 101 102 103 103 103 102 101 100 99 98 96 94 92 91 89 88 87 86 85 84 82 80 78 76 76 75 75 75 75 74 73 72 71 69 67 67 67 67 66 65 66 68 68 67 66 64 63 61 59 56 54 53 50 48 46 43 42 40 39 39 40 43 47 52 56 59 62 62 60 57 54 51
18 17 17 18 19 19 21 25 30 35 44 56 69 78 85 89 93 94 95 97 98 98 98 98 96 94 92 91 90 89 88 87 86 85 84 83 81 80 79 78 78 80 80 79 78 75 73 71 70 69 68 67 65 63 61 59 56 52 48 43 40 38 36 35 33 32 30 27 25 23 22 22 21 21 22 24 27 32 38 44 49 54 58 59 59 59
26 23 23 22 20 19 19 18 19 21 23 26 31 37 42 48 52 56 59 62 64 66 67 68 69 70 71 71 71 70 69 69 70 70 70 70 70 69 67 66 66 66 65 62 59 55 52 50 49 47 45 44 42 41 40 40 39 35 29 24 20 17 16 15 14 13 13 12 11 11 11 11 12 12 12 13 14 15 17 22 27 32 38 45 51 53
28 26 28 28 25 24 24 23 21 19 18 19 19 20 21 24 27 29 33 36 39 42 43 42 42 44 46 48 50 50 51 51 51 52 54 54 54 54 54 55 56 54 51 48 47 47 47 48 50 52 53 53 52 51 47 42 35 28 20 16 13 12 12 12 12 12 11 11 10 10 11 10 10 11 11 11 12 12 11 12 14 17 20 24 32 38
23 25 28 31 34 35 32 28 27 26 24 23 22 21 21 22 23 25 28 31 36 43 47 51 55 60 65 69 69 69 71 71 70 73 77 78 79 79 81 83 83 80 78 78 79 79 79 78 78 77 74 69 62 52 40 30 23 18 16 15 14 14 13 12 12 11 11 11 10 10 10 10 10 10 11 10 10 11 11 11 11 13 14 15 18 22
21 22 24 26 33 37 33 28 28 30 30 29 29 29 28 28 28 29 30 30 32 35 40 47 58 68 78 84 87 91 95 95 95 97 99 100 99 98 97 95 92 88 86 83 79 76 70 64 59 54 46 39 33 26 21 18 17 15 15 14 13 12 11 11 11 11 10 10 10 9 9 9 9 8 8 9 9 9 9 10 11 11 12 14 15 15
Wind_Speed
19 20 21 22 23 24 25 26 28 29 28 28 29 29 30 30 30 32 35 32 31 31 30 30 29 27 28 26 26 27 28 27 26 24 24 25 25 25 26 25 25 25 25 24 23 24 24 24 22 21 20 19 17 17 17 17 18 16 13 14 15 13 10 9 8 8 8 9 10 9 10 11 12 12 12 13 13 13 14 14 14 14 15 15 15 14
19 19 20 22 24 25 26 27 28 27 27 28 28 29 30 29 30 34 35 33 32 30 30 30 29 27 27 26 26 28 29 28 27 26 26 26 25 25 26 26 25 25 25 25 24 24 24 24 23 21 20 18 17 17 17 18 18 15 14 14 14 13 12 11 10 11 11 12 12 11 12 12 12 12 12 13 13 13 14 15 15 15 15 16 16 15
18 19 21 23 24 24 24 25 26 26 27 27 27 28 28 28 31 33 33 32 31 30 30 30 28 27 26 26 27 27 28 28 28 28 27 25 24 25 25 25 25 25 25 24 23 23 23 23 22 21 19 19 18 17 17 17 17 16 14 14 14 13 12 12 13 14 14 15 14 13 13 13 13 13 13 13 13 14 14 15 15 16 16 16 15 15
19 20 22 23 23 23 24 24 25 26 26 26 26 26 26 28 29 29 30 32 31 29 30 28 26 26 25 26 27 26 27 27 26 26 25 23 23 25 25 25 24 24 24 23 21 21 22 22 22 21 19 19 19 17 16 16 16 17 16 17 16 14 14 14 16 17 17 16 16 15 15 15 15 15 14 14 14 14 15 15 16 16 16 15 15 14
21 22 21 21 21 22 23 23 24 24 24 24 24 24 25 26 26 27 30 30 29 29 28 25 23 25 25 26 26 25 25 24 22 21 20 21 23 24 24 23 23 23 23 21 20 20 21 22 21 20 19 18 18 17 16 16 16 17 17 17 17 16 16 18 19 19 18 17 17 17 17 17 17 16 15 15 14 14 15 16 16 16 16 15 14 13
21 20 19 19 19 20 21 22 22 22 22 22 21 21 23 24 26 28 28 26 25 26 25 21 20 22 24 23 22 22 21 19 17 17 17 19 21 21 21 21 22 21 20 19 18 20 21 20 19 18 16 15 15 15 16 16 16 17 18 18 18 19 19 20 20 20 19 19 18 18 17 18 18 17 15 14 14 13 13 15 16 16 16 15 15 14
20 18 17 18 18 19 19 19 20 20 19 19 18 19 21 23 24 25 25 24 23 22 21 19 18 18 21 22 20 19 17 16 16 16 16 17 18 18 19 20 19 17 17 17 18 21 21 19 18 16 13 12 12 12 14 15 16 17 18 19 19 19 20 20 20 20 20 20 19 18 18 18 17 16 15 14 14 13 12 12 13 14 15 16 16 16
18 16 17 17 17 17 17 17 17 17 17 17 17 18 20 21 22 23 24 22 20 19 18 18 19 18 19 20 18 17 16 16 17 16 16 17 16 17 18 19 17 16 17 18 19 21 21 18 16 15 13 11 10 11 13 15 16 17 18 18 18 19 19 20 20 20 20 20 18 18 18 18 17 16 15 15 14 14 13 12 12 13 15 16 17 17
18 17 17 17 16 16 16 17 17 17 17 17 17 19 20 20 21 22 22 20 18 18 16 17 20 19 18 20 17 16 16 16 17 17 17 18 17 18 19 19 19 19 19 19 18 18 18 17 16 15 13 11 10 12 13 14 16 17 18 18 19 19 20 20 20 20 20 19 18 17 17 17 16 16 15 15 16 16 15 15 14 14 15 17 17 18
20 19 18 17 17 17 17 17 17 18 18 17 17 18 19 19 20 20 19 17 17 18 17 17 19 19 19 20 18 17 18 19 20 19 19 20 20 20 20 20 20 20 19 18 17 16 17 16 15 14 13 11 12 13 14 16 17 18 19 19 20 20 20 20 20 19 19 18 17 16 16 16 16 16 17 17 18 18 18 18 18 18 19 19 19 20
19 19 18 17 17 17 18 18 18 18 17 18 18 18 18 18 18 19 18 17 17 18 18 17 18 21 20 20 20 20 20 21 21 20 20 21 21 21 21 21 21 20 18 18 17 16 16 16 15 14 15 14 14 16 17 18 19 19 21 21 22 22 22 21 20 19 18 17 17 17 17 17 18 19 20 21 21 22 22 22 22 23 23 23 23 22
19 18 17 17 17 16 17 17 17 17 16 17 17 17 17 17 17 17 17 19 19 18 18 16 19 22 20 20 22 21 20 20 20 21 22 21 22 22 21 20 20 18 17 16 15 15 16 16 16 16 17 19 20 21 21 21 22 23 24 26 26 24 23 21 20 19 19 19 19 19 19 20 21 22 22 23 23 24 24 25 25 25 26 26 25 24
18 17 16 16 17 16 16 16 16 16 16 17 16 16 16 15 17 18 17 18 19 19 19 18 20 22 22 23 24 22 22 22 22 23 24 24 23 23 21 20 19 17 16 15 14 14 15 17 18 19 21 22 22 22 24 27 26 26 28 28 27 26 24 23 21 21 22 22 23 22 22 23 23 24 24 24 24 23 24 25 26 26 27 27 26 24
18 18 17 17 18 17 17 16 16 16 15 15 15 16 15 14 16 18 18 18 19 21 21 19 20 21 24 27 25 23 25 26 26 26 26 26 26 24 23 22 20 18 17 17 16 16 17 18 20 20 21 22 22 21 24 27 26 25 27 28 27 26 25 24 24 23 24 25 24 23 23 24 25 24 23 23 23 22 23 25 26 28 28 27 26 24
20 19 19 19 19 18 17 17 16 15 15 15 15 16 16 16 16 17 18 19 19 20 20 20 22 23 26 28 26 25 26 27 29 29 29 29 28 26 25 23 22 21 20 20 18 18 20 21 21 22 22 23 23 21 22 25 26 26 27 27 26 24 23 22 23 24 24 24 23 23 25 25 24 23 21 21 21 21 24 26 27 28 27 25 24 22
21 19 20 20 20 19 18 17 18 16 16 17 18 18 19 19 19 18 19 19 18 18 20 21 24 25 26 26 25 26 27 28 30 31 31 31 30 29 28 26 24 24 23 23 22 22 23 24 24 25 27 27 25 24 25 26 29 30 28 27 26 24 21 19 20 23 24 23 24 24 24 23 22 21 20 20 20 22 25 26 26 25 25 24 22 21
21 20 21 21 20 20 19 19 19 18 18 19 19 20 20 19 19 19 19 20 20 20 22 22 23 25 26 27 26 27 28 29 31 32 32 32 32 31 30 28 27 26 26 26 25 26 26 27 28 28 31 30 27 26 28 28 28 31 30 28 28 26 24 20 19 21 22 23 23 22 21 20 20 21 21 21 22 22 22 22 22 23 23 23 23 21
20 19 20 22 22 23 22 22 22 21 21 21 20 21 19 18 21 20 19 21 21 22 23 22 23 24 24 26 29 30 30 30 31 32 33 33 33 32 31 31 30 29 28 29 29 30 31 31 31 32 33 34 31 28 28 28 28 30 31 30 26 24 25 22 18 19 21 21 21 21 20 19 19 20 21 21 21 20 18 18 19 20 21 21 21 20
21 20 20 23 25 25 24 24 24 25 25 23 23 23 19 18 21 22 22 22 21 21 22 22 23 23 23 25 28 30 32 33 33 33 33 34 34 34 33 33 32 32 32 32 33 34 34 34 34 35 35 35 36 35 31 28 28 30 33 31 21 18 20 21 21 23 23 22 22 22 20 18 16 17 17 17 16 16 16 16 16 16 18 19 19 18
23 23 22 23 25 26 27 27 26 26 27 27 26 25 23 22 22 21 22 22 21 20 21 23 23 22 24 25 25 26 29 31 33 34 34 34 34 34 34 34 34 34 34 34 35 35 36 35 34 36 36 33 34 38 37 34 31 31 37 37 27 22 23 23 24 24 23 23 22 20 19 18 16 15 14 13 13 13 14 15 14 15 16 17 17 18
25 26 25 24 25 26 27 28 28 27 27 27 28 27 27 27 25 24 23 21 20 19 19 20 21 22 22 22 22 23 25 27 29 32 34 34 35 35 35 35 35 35 34 33 33 33 34 34 33 34 37 33 30 32 35 35 34 34 38 43 38 31 27 25 24 24 23 22 21 20 19 17 16 14 13 12 12 12 13 13 13 15 16 16 16 17
28 27 27 26 24 24 27 28 29 29 27 26 26 25 25 25 25 26 26 25 24 22 19 18 18 20 19 18 20 21 22 24 26 28 30 31 32 32 32 32 32 31 31 31 31 31 30 31 31 31 35 36 33 31 32 32 33 33 35 40 38 31 27 27 26 24 23 23 22 22 20 18 15 14 13 13 12 12 12 13 13 14 15 15 15 16
29 29 29 29 26 27 27 26 26 28 28 28 28 26 25 24 25 25 24 24 25 24 24 21 19 20 19 18 19 20 20 22 23 24 25 27 27 27 27 28 28 28 28 28 28 28 28 29 30 30 31 34 34 32 33 33 33 33 34 37 38 34 29 28 27 25 23 23 24 23 21 19 16 14 14 14 14 13 13 13 13 14 15 15 14 15
32 31 31 30 29 29 28 26 27 27 28 30 32 32 31 29 28 27 24 24 23 22 23 23 23 23 21 19 18 19 20 21 21 22 23 24 24 24 24 24 24 24 24 24 25 25 27 28 29 29 30 31 31 31 31 30 30 30 30 30 33 32 29 27 26 24 23 23 22 21 20 19 17 16 15 15 15 15 14 14 14 14 15 15 15 14
34 33 32 31 32 31 29 29 30 29 30 31 31 33 34 33 32 31 28 27 25 23 22 21 23 24 22 20 19 19 19 19 19 20 21 22 22 21 21 21 21 21 19 20 21 23 26 27 27 28 28 28 28 28 27 26 27 27 25 24 26 27 27 26 26 25 23 22 21 20 19 19 19 18 17 17 17 17 16 15 15 15 16 16 16 15
34 35 34 34 33 31 28 29 30 29 29 30 30 32 34 34 34 33 31 28 28 28 25 22 23 22 19 19 20 20 19 19 19 20 21 21 21 21 20 19 19 18 17 18 20 22 25 26 25 25 25 24 23 22 21 22 23 24 24 24 24 25 25 26 26 26 24 22 21 20 19 20 20 20 19 19 19 19 18 17 16 16 17 17 18 17
31 34 36 37 37 34 31 31 30 28 27 27 29 31 32 33 33 32 31 28 27 28 27 25 25 23 20 19 19 19 19 19 20 21 20 20 21 21 21 20 19 19 18 18 20 22 24 24 24 23 23 22 21 19 20 21 21 21 21 22 23 25 26 27 27 26 25 24 23 21 20 19 19 20 20 21 21 21 22 21 20 19 18 18 19 18
25 28 30 31 33 35 35 33 31 29 28 28 28 29 31 32 32 32 31 28 27 26 25 26 26 25 23 22 21 20 20 20 20 20 20 20 20 21 22 22 21 20 20 20 21 22 23 24 24 23 22 21 21 20 21 21 22 22 21 21 22 24 26 27 27 27 26 25 24 23 21 20 19 19 19 21 22 23 23 24 23 22 20 20 20 21
25 25 24 23 23 27 31 34 35 33 32 32 31 30 30 30 30 31 31 30 30 28 27 27 26 25 26 25 25 24 23 22 22 22 21 21 20 21 23 23 23 23 23 23 23 24 24 25 25 24 24 23 23 23 24 24 24 24 24 24 24 25 25 26 27 28 28 27 26 25 24 23 21 20 20 21 23 24 25 25 26 26 25 25 26 27
25 25 23 22 22 21 22 26 33 37 37 36 35 34 33 32 32 32 32 32 33 31 31 30 28 27 27 27 27 27 26 25 25 25 24 23 22 23 24 25 25 26 26 26 26 26 26 27 27 27 27 27 27 27 27 26 26 26 26 26 26 27 27 27 28 29 29 29 29 29 28 27 26 24 24 24 25 26 27 28 29 30 31 32 33 33
25 24 23 23 24 24 21 21 25 32 37 39 38 38 37 36 35 34 34 34 34 34 33 33 32 31 30 29 29 29 29 28 27 27 26 26 26 26 26 27 28 28 29 29 29 29 30 30 30 30 30 30 30 30 29 29 28 28 28 29 29 29 29 29 29 30 30 31 31 32 32 31 30 30 29 29 29 29 30 31 32 33 34 35 36 36
26 25 24 23 24 25 25 24 23 25 30 34 37 40 41 41 40 38 37 37 36 36 36 35 35 35 34 33 32 32 32 31 30 30 29 29 29 30 30 30 31 31 32 32 32 33 33 34 34 34 34 33 33 33 32 32 32 32 32 32 32 32 32 32 32 32 33 33 34 34 34 34 34 34 34 34 34 34 34 35 35 36 37 38 39 39
27 26 25 25 26 26 26 27 27 26 26 27 27 30 34 38 39 39 39 39 39 39 40 39 39 38 37 37 36 35 35 34 33 33 32 33 33 33 34 34 34 35 35 36 36 36 36 37 37 37 37 37 37 37 37 37 36 36 36 36 36 36 36 36 36 36 37 37 37 37 37 37 37 37 37 37 38 38 38 38 39 39 40 40 41 42
29 28 27 27 27 27 26 27 28 29 30 28 23 23 26 27 29 31 32 33 34 36 38 40 41 41 40 40 39 38 37 36 36 36 36 36 36 37 38 39 40 39 39 39 40 39 39 40 39 39 39 39 39 39 38 38 39 39 40 40 40 40 40 40 40 40 41 40 40 40 40 40 40 40 40 40 40 40 40 40 40 40 41 42 43 44
29 28 28 27 27 27 26 27 29 30 30 28 25 26 26 26 26 27 27 27 28 30 33 37 40 42 42 42 41 41 40 40 40 40 40 40 41 42 43 43 43 41 40 42 44 44 43 42 39 38 38 39 39 38 39 40 41 42 44 44 45 46 46 46 46 45 45 43 43 42 43 43 43 42 42 42 41 41 41 41 41 41 41 42 43 44
29 28 27 26 26 27 27 28 30 30 28 27 27 28 28 28 28 28 28 28 28 28 29 32 35 38 39 40 40 40 41 42 43 44 44 44 45 44 44 43 42 40 40 42 42 40 39 39 39 37 37 38 38 39 40 41 42 43 45 46 47 47 47 48 47 47 46 46 46 46 45 45 45 45 44 44 43 42 42 43 43 43 43 43 44 45
27 27 27 27 27 28 28 29 29 28 27 27 27 27 27 28 28 29 29 29 30 30 30 31 31 33 34 34 35 35 36 38 40 42 44 46 46 46 44 43 42 41 41 42 41 40 40 42 43 43 42 41 41 42 43 43 44 45 46 47 48 48 49 50 51 51 52 52 51 50 49 48 47 47 46 46 45 45 45 46 46 46 46 46 47 48
28 28 27 27 27 28 29 30 31 30 29 27 26 26 27 27 28 29 30 30 31 32 32 32 32 32 32 33 33 33 33 34 35 37 39 42 43 44 45 46 46 46 47 47 47 47 47 47 47 47 47 47 48 49 50 51 51 52 53 53 54 55 56 57 57 57 57 56 55 54 53 52 50 50 49 49 49 49 49 49 49 49 49 49 49 50
33 32 31 30 29 28 28 28 30 31 31 28 27 27 27 27 27 28 29 30 31 32 32 31 31 32 32 33 33 33 34 35 36 36 37 39 40 42 44 45 47 48 49 48 49 49 49 49 50 51 52 53 54 55 56 56 57 57 58 58 59 59 60 59 59 59 59 59 58 58 57 56 55 54 54 53 53 53 53 53 52 52 51 50 50 50
36 35 35 34 33 31 29 29 30 32 30 29 30 29 29 30 31 31 32 32 32 33 34 34 34 34 34 34 34 34 35 36 36 36 38 39 40 42 43 45 47 48 49 50 51 52 53 54 55 56 57 58 59 59 59 59 59 59 59 59 60 60 60 60 60 61 61 61 61 61 61 61 60 59 58 58 57 57 56 55 55 53 52 52 51 50
36 36 36 35 33 34 33 32 32 32 31 30 31 32 33 34 35 36 36 36 35 35 35 35 36 36 36 36 36 36 36 36 36 36 38 39 40 42 44 46 47 49 51 53 54 55 57 58 58 59 59 60 60 60 60 60 60 60 60 60 61 62 62 62 63 63 64 64 65 65 66 65 65 63 62 61 60 59 58 57 56 55 54 54 53 51
34 35 36 35 34 35 36 36 36 36 34 33 33 33 34 36 38 38 37 35 34 35 35 35 35 36 36 37 37 38 38 38 38 38 39 39 40 41 43 45 47 49 51 53 55 56 58 58 59 60 60 61 61 61 61 61 62 62 62 63 64 65 65 66 66 67 67 67 68 68 68 68 67 66 65 63 62 61 60 58 57 56 55 55 54 52
34 33 33 35 35 36 36 37 38 39 38 35 34 32 33 35 36 36 34 34 34 35 35 36 36 37 38 38 39 40 40 41 41 41 42 42 42 43 44 45 47 48 50 53 54 56 57 59 60 61 61 62 62 62 63 63 63 64 64 65 66 67 67 68 68 69 69 69 69 69 69 68 68 67 65 63 62 61 61 60 58 57 56 54 53 53
37 36 35 35 36 36 35 36 38 39 39 38 36 35 34 35 35 36 37 37 38 38 39 39 39 39 40 40 41 41 42 43 43 44 45 46 46 47 48 48 49 50 52 53 54 55 57 58 59 60 61 61 62 62 63 63 64 65 65 66 67 67 68 68 69 69 69 69 69 69 69 68 68 68 67 65 64 63 62 61 61 59 58 56 54 53
39 39 39 39 39 39 38 38 39 40 40 41 41 41 42 42 43 43 44 44 44 43 43 43 42 42 42 42 43 43 44 45 45 46 47 48 49 50 51 51 52 53 54 55 56 57 58 59 59 60 61 62 63 63 63 63 64 64 64 64 65 65 66 66 66 67 67 67 68 68 68 67 66 66 66 65 65 64 62 62 61 60 59 58 56 54
37 38 38 39 39 40 41 41 41 41 41 42 43 44 46 47 47 46 46 45 45 45 44 44 44 44 43 44 44 44 45 46 47 48 49 50 50 51 52 53 53 54 55 56 57 57 58 59 59 60 60 61 60 60 60 60 60 60 60 61 61 62 63 63 64 65 65 65 66 66 66 66 65 64 63 63 62 62 61 60 59 59 58 58 56 55
31 33 34 34 35 37 38 39 39 40 41 41 42 43 44 44 44 44 43 42 42 42 42 43 43 43 43 43 43 44 45 45 46 47 48 49 50 50 51 51 52 53 53 54 55 55 56 56 56 57 57 57 56 56 56 57 58 58 59 60 61 62 62 63 64 64 64 64 64 65 65 65 65 65 64 63 62 61 60 60 59 59 58 57 56 55
23 26 27 29 30 32 33 34 35 37 38 38 39 40 40 40 41 41 40 40 40 40 40 40 41 41 41 41 41 42 42 43 43 44 45 46 46 47 47 48 49 49 51 51 52 53 53 53 53 54 54 54 54 54 55 56 58 59 60 60 60 60 60 60 60 60 61 61 61 61 62 63 63 63 64 64 64 64 62 61 61 61 59 58 57 56
17 20 22 24 25 26 28 29 30 31 32 33 34 35 35 36 36 36 37 37 37 37 38 38 38 38 39 39 39 40 40 40 41 41 42 42 43 43 44 45 46 47 48 49 50 51 51 51 52 53 54 55 55 56 58 59 60 60 59 58 57 57 57 57 57 57 58 59 59 60 60 61 62 62 62 63 63 64 63 61 61 61 61 60 59 59
13 14 15 18 19 21 23 24 25 26 27 28 29 30 30 31 31 32 32 33 33 34 35 35 36 36 36 36 37 37 38 38 39 39 40 41 42 42 44 45 46 48 49 50 51 52 53 54 55 57 58 59 60 60 60 59 59 58 57 57 57 57 57 57 57 58 59 60 60 61 61 62 62 63 64 64 64 64 63 62 61 61 61 60 60 59
13 12 13 14 15 16 17 18 19 20 22 22 23 24 25 26 27 28 29 29 31 31 32 33 35 36 37 37 38 38 39 40 40 41 43 44 46 47 48 50 51 52 53 54 55 56 57 57 58 58 59 59 58 57 56 55 55 56 56 56 55 55 56 56 56 57 57 58 60 61 61 62 63 63 64 65 65 66 65 64 63 63 61 60 59 59
Wind_Direction
233 231 229 228 226 225 223 222 223 224 221 217 216 216 216 216 218 224 228 227 228 232 235 237 236 235 235 234 234 239 241 242 243 241 238 239 240 241 243 245 249 252 252 250 251 254 257 261 265 268 269 269 264 258 257 258 257 253 241 228 228 238 240 235 247 256 256 259 259 265 268 265 264 263 263 265 268 272 275 279 281 283 283 279 274 270
231 229 227 225 225 224 223 223 224 224 222 218 216 215 216 215 217 223 226 227 228 231 235 237 237 236 236 237 236 238 240 241 242 242 240 240 240 241 242 244 246 248 249 249 250 253 258 262 266 268 269 267 264 260 258 258 259 250 236 229 228 233 236 241 251 256 257 258 259 265 265 263 262 259 259 261 264 269 273 278 280 280 281 280 278 275
228 226 224 225 225 225 225 224 225 225 224 221 217 216 216 215 219 224 227 229 230 230 234 237 237 238 239 239 238 237 239 240 241 243 243 242 239 237 237 239 242 243 245 247 249 253 259 263 266 267 266 265 262 260 258 256 252 241 227 226 233 237 240 247 254 257 258 257 258 260 260 261 260 258 259 260 261 263 265 271 275 277 278 277 276 275
223 223 224 225 224 224 224 224 225 226 226 224 220 217 217 219 221 226 229 231 232 232 234 237 239 241 241 240 240 239 241 242 243 245 245 241 234 230 230 232 236 239 242 245 249 253 257 260 261 262 261 260 258 255 252 250 243 236 230 232 240 243 245 251 254 255 256 256 256 256 257 259 258 259 261 260 261 262 263 266 269 272 273 273 273 271
223 226 226 227 227 225 225 224 224 226 227 226 224 220 220 222 222 226 231 232 234 236 237 238 241 242 241 241 242 241 242 243 243 243 239 233 229 226 226 229 232 237 242 246 250 251 251 252 254 255 255 254 253 249 247 245 240 235 234 236 242 245 247 250 252 253 253 253 254 255 257 258 258 260 262 264 266 267 269 268 266 266 268 269 269 268
225 228 227 228 229 228 226 225 224 225 227 227 226 223 224 225 224 229 235 236 237 241 240 236 237 242 243 242 241 239 238 237 234 230 225 225 227 226 225 228 233 239 245 247 247 246 244 244 246 248 249 249 247 243 240 239 236 234 235 238 242 245 247 249 251 251 250 250 252 255 256 258 260 263 266 271 272 274 278 276 269 263 262 264 264 265
226 227 227 228 229 229 228 227 225 224 225 226 223 221 224 226 227 232 235 235 236 241 241 231 225 233 239 238 236 234 230 224 220 217 217 220 224 224 223 227 233 238 243 243 242 241 236 234 237 240 242 243 244 240 234 232 233 235 236 238 241 244 247 249 249 248 248 249 252 255 258 261 265 269 272 274 273 274 280 284 276 263 258 260 260 261
226 226 227 228 229 229 228 225 223 220 221 224 219 217 222 225 228 231 233 234 231 232 233 223 216 221 232 237 235 229 224 219 217 213 212 217 219 217 217 219 224 229 234 236 236 235 229 225 230 235 237 239 240 236 230 228 230 234 236 237 239 242 245 246 246 246 248 250 253 256 261 266 271 275 275 274 274 273 274 278 276 266 260 260 262 263
223 224 225 226 225 225 223 221 219 215 215 218 215 215 220 222 225 229 230 231 229 228 225 219 217 216 224 235 233 227 226 221 219 217 211 212 213 209 208 211 218 224 228 229 229 228 226 224 229 237 240 239 239 235 229 228 230 233 234 233 235 239 242 244 244 246 248 251 254 258 263 268 273 275 275 274 274 274 273 273 272 268 263 263 265 268
221 222 222 222 221 219 218 218 217 214 213 214 213 214 217 219 222 225 225 228 229 227 223 221 218 211 216 229 227 226 227 220 217 219 214 211 210 207 207 212 220 224 225 224 226 228 229 229 233 242 245 242 241 239 233 230 232 234 235 235 236 238 240 242 243 245 248 251 253 256 260 265 269 271 274 275 276 277 278 279 279 277 274 271 271 274
225 225 224 222 222 219 218 217 217 215 213 214 213 214 217 219 220 222 223 227 228 226 225 224 218 211 214 224 223 225 229 223 218 221 220 217 214 211 212 217 222 223 222 223 228 234 237 238 240 249 255 250 244 242 240 238 237 237 237 238 239 239 240 242 243 245 247 249 250 253 257 261 266 270 273 277 278 281 283 284 285 284 282 280 278 278
229 229 229 228 226 222 219 218 218 217 215 216 216 216 220 221 223 224 224 226 227 227 226 221 218 216 215 222 224 225 230 227 222 223 223 219 215 214 217 220 221 223 226 229 236 244 246 246 248 254 256 252 247 245 243 239 234 233 234 234 235 237 238 240 241 242 243 245 248 251 254 258 263 268 272 275 279 283 286 286 285 284 283 282 281 280
233 233 232 232 230 225 221 220 220 219 216 218 218 217 219 222 224 223 224 229 229 229 227 221 221 220 219 225 228 223 222 224 224 223 222 219 216 218 222 221 221 226 234 240 246 251 252 252 253 253 254 257 261 265 263 254 242 235 229 224 224 227 229 232 235 237 239 243 246 249 253 259 263 268 272 276 280 283 285 286 285 283 282 280 279 278
233 234 231 230 229 226 221 218 222 223 221 222 221 219 218 218 222 223 225 230 230 230 231 230 227 224 223 228 231 224 218 219 223 224 223 222 221 223 225 225 226 230 237 244 249 253 258 261 261 260 265 271 274 279 276 262 249 240 229 217 213 214 217 224 230 234 239 243 248 254 259 264 267 270 276 280 282 285 286 288 288 285 280 278 279 278
229 232 233 233 230 227 224 220 221 222 223 224 220 218 217 216 222 225 224 229 232 232 234 235 233 229 228 230 231 228 223 220 222 224 225 226 227 229 229 229 231 234 238 245 249 254 261 266 268 269 275 276 272 273 268 253 244 240 231 222 217 213 214 224 230 235 244 249 256 263 266 268 271 272 275 278 280 284 287 289 289 285 280 277 279 280
228 229 231 234 233 230 228 226 223 220 223 227 224 221 219 218 224 227 226 230 233 234 236 236 235 234 234 234 232 229 227 225 225 227 228 230 232 233 234 233 234 236 240 244 249 254 260 267 270 273 277 276 275 272 266 257 248 240 232 229 227 220 217 230 239 242 249 255 258 263 266 269 273 275 274 274 277 283 288 288 285 282 277 275 278 278
232 233 234 234 235 233 230 229 228 221 221 229 234 232 228 227 231 234 237 239 238 238 240 239 239 239 239 239 236 232 229 229 229 230 231 233 235 237 237 238 238 240 242 245 250 253 258 264 266 270 271 271 272 266 262 263 254 241 233 232 233 229 223 229 241 245 248 252 253 257 264 270 272 273 273 274 278 283 290 293 288 281 277 275 276 275
227 231 236 234 233 233 231 231 233 227 221 223 233 239 237 239 240 236 238 243 243 242 243 242 242 243 242 241 239 235 233 233 233 234 235 236 238 238 239 240 240 242 244 247 251 255 259 262 264 266 266 266 265 258 257 263 256 243 235 232 237 239 231 228 236 246 252 254 254 255 259 265 268 268 270 273 278 283 290 297 295 289 283 278 277 276
222 223 231 233 232 232 231 232 234 235 230 223 228 235 234 239 245 243 241 244 248 249 249 248 247 247 244 241 238 236 235 235 235 237 238 239 241 241 242 243 243 244 246 249 253 257 259 260 261 262 263 264 260 254 257 262 254 243 235 231 238 243 237 236 240 248 256 258 256 253 251 256 264 267 269 272 275 280 285 291 295 292 284 279 277 276
225 222 227 232 231 230 231 232 233 238 239 233 230 232 231 232 239 245 246 246 249 251 251 252 251 247 242 239 238 236 235 236 237 239 242 243 245 247 248 249 250 251 252 254 256 256 257 256 257 257 256 258 257 255 259 258 250 244 234 232 247 258 251 252 251 252 259 259 254 249 246 251 258 262 266 270 273 277 279 282 285 282 278 277 274 272
228 226 227 233 234 232 233 233 231 233 237 238 237 235 235 235 236 240 244 242 239 240 245 249 249 244 239 238 238 236 235 236 237 240 243 245 248 250 252 253 255 256 256 256 255 254 253 253 254 253 250 250 251 253 259 256 250 250 242 239 251 260 257 257 255 254 257 254 249 246 246 248 252 256 261 265 270 276 278 279 277 275 275 275 275 272
231 228 228 233 235 232 233 234 233 231 232 234 237 238 237 238 239 241 244 242 238 236 238 242 245 245 240 235 235 234 234 234 236 238 241 244 247 249 251 253 254 254 253 253 251 250 250 249 251 252 249 248 247 248 255 256 253 256 253 247 251 255 255 255 252 250 248 245 245 246 247 248 249 252 257 258 264 270 274 276 275 275 276 277 277 276
232 230 228 231 231 230 233 235 234 235 233 229 231 233 232 233 236 238 240 243 242 240 239 239 243 245 240 234 233 232 232 234 235 238 240 242 245 246 248 250 251 251 251 250 249 248 247 247 249 251 251 250 249 249 252 253 253 256 257 253 252 252 251 249 247 246 243 242 245 248 250 253 253 254 255 256 261 263 265 270 271 273 276 278 279 277
232 230 230 232 232 233 236 237 237 238 236 231 230 230 230 232 235 236 236 239 242 240 239 239 241 242 240 237 237 234 233 234 235 236 238 240 242 243 245 248 250 251 251 249 248 246 247 249 250 250 251 252 254 256 257 256 255 257 257 254 251 247 243 241 241 242 241 241 245 249 254 258 259 258 255 254 257 259 261 264 267 271 273 275 278 279
232 231 231 232 234 236 238 239 240 240 237 236 235 234 233 234 237 239 239 240 241 239 237 238 241 242 240 237 238 237 235 234 232 231 233 236 239 241 243 246 249 251 250 247 247 248 249 251 252 251 250 252 254 257 258 255 252 250 247 244 242 240 238 239 240 241 242 244 247 250 256 260 261 261 257 253 254 255 256 258 262 266 267 269 273 276
234 234 232 230 230 231 234 238 240 242 241 241 240 237 235 237 238 239 241 241 242 241 238 236 239 240 236 232 232 234 234 232 229 230 232 235 239 242 243 244 246 247 245 242 243 246 249 252 255 254 253 254 255 254 252 248 244 241 240 238 237 238 239 240 241 243 244 247 250 253 255 258 260 261 258 253 249 249 250 252 255 259 261 264 266 269
238 236 235 233 231 228 230 235 239 241 242 243 243 240 238 238 237 238 240 240 242 242 239 235 237 240 238 234 234 235 235 233 231 232 235 239 242 243 242 241 241 240 240 239 239 242 245 249 254 256 255 256 256 253 247 241 239 239 239 239 239 239 240 241 243 244 247 250 252 252 251 252 256 257 255 251 246 245 247 249 251 255 260 264 264 265
241 239 236 235 235 233 234 236 237 236 237 238 240 240 240 239 238 238 239 237 237 238 238 235 235 238 240 240 239 238 236 235 234 235 240 244 244 243 242 240 240 239 239 239 240 241 243 246 248 250 250 251 250 248 244 242 241 242 242 242 241 241 241 242 243 245 248 252 253 251 250 251 254 255 254 251 248 247 248 250 252 255 259 264 267 269
243 243 240 238 238 239 240 240 237 235 235 237 237 237 238 239 239 238 239 238 237 236 237 237 235 236 241 243 242 240 237 237 238 239 243 245 243 242 241 240 240 240 241 242 243 242 242 243 244 244 243 244 245 245 246 246 247 246 246 245 245 245 245 245 246 248 250 252 254 254 256 258 259 259 258 256 255 254 254 255 257 259 262 266 269 272
247 246 246 244 243 245 245 244 241 237 235 236 236 235 235 236 237 238 238 239 240 239 239 240 239 238 240 242 241 240 239 239 240 241 243 243 242 240 239 239 240 241 242 243 244 244 243 243 243 243 243 244 245 246 247 248 249 247 246 245 246 246 246 247 247 249 251 254 256 258 260 263 264 264 263 262 262 262 262 261 262 263 265 267 269 271
251 251 250 249 249 250 250 251 249 244 239 237 237 236 235 235 236 237 238 240 242 243 243 243 243 241 241 240 239 240 241 242 243 243 242 241 241 240 238 238 239 240 242 243 245 246 246 245 245 246 247 248 250 250 251 250 249 249 248 248 248 249 250 251 252 252 253 255 257 259 261 263 265 266 267 267 267 267 267 266 266 267 267 267 268 269
254 254 254 254 253 253 253 254 254 250 245 241 239 239 240 239 237 237 238 239 240 243 244 245 245 244 243 242 240 240 242 243 244 244 243 242 242 242 242 241 241 241 242 243 244 245 246 247 248 249 251 253 255 255 255 255 254 253 253 253 254 254 255 256 256 257 257 257 258 259 260 261 263 265 266 267 268 268 268 268 268 268 268 268 268 269
256 256 256 257 256 254 253 255 255 255 253 248 244 244 245 244 243 242 241 241 241 241 242 244 245 245 244 243 241 241 242 243 243 244 245 245 245 246 246 247 246 246 245 245 245 245 245 246 248 250 253 255 257 258 259 259 259 258 258 259 259 260 260 259 259 258 259 259 259 260 261 261 262 264 265 266 267 267 267 267 267 267 267 268 268 268
258 259 258 258 259 257 255 255 255 254 253 253 252 250 248 246 246 247 245 244 243 243 244 244 244 245 245 243 242 241 241 242 243 244 245 246 246 247 248 249 249 249 250 251 250 247 246 248 250 252 255 256 257 258 258 258 258 260 262 263 263 264 263 263 262 261 261 261 261 262 263 264 265 266 267 267 267 267 267 266 266 266 267 267 267 267
258 258 258 258 258 258 256 253 252 251 251 254 255 253 252 252 251 250 248 244 242 243 246 245 244 243 243 243 242 242 242 242 243 243 244 245 246 248 249 249 250 251 253 255 254 251 248 248 249 252 254 254 254 255 256 258 261 263 264 264 265 265 265 264 264 264 264 264 265 266 268 269 270 270 270 270 270 269 268 267 267 268 268 269 268 267
254 254 254 254 254 255 255 253 252 251 252 255 257 255 254 254 252 251 250 246 242 241 243 243 242 242 242 242 242 242 242 242 242 242 241 242 245 248 248 248 250 252 251 250 249 247 244 244 247 250 251 252 253 256 259 261 263 264 264 263 263 264 264 264 264 264 265 266 268 270 271 272 272 272 272 272 272 271 269 269 270 270 271 271 270 268
248 250 251 251 251 253 255 255 254 254 252 251 254 256 254 252 250 248 248 247 245 244 243 244 243 243 242 242 242 242 242 242 242 241 239 240 243 245 244 245 247 248 246 243 241 242 243 245 249 250 248 248 251 254 256 258 259 261 262 263 263 264 266 267 267 268 268 269 270 271 271 271 271 272 272 272 272 271 271 271 271 271 272 271 269 267
245 249 253 254 252 252 255 256 256 256 253 250 250 253 252 251 250 248 248 247 247 247 247 247 248 248 248 248 247 247 246 245 244 243 241 240 242 242 241 241 242 242 243 243 243 244 246 248 249 250 249 250 253 254 256 258 259 260 262 263 264 266 267 268 269 269 270 270 271 271 271 270 270 270 270 271 271 271 270 270 270 270 271 270 268 267
249 251 253 254 254 253 255 256 255 256 255 252 251 250 249 249 249 249 249 248 247 248 249 250 251 252 252 252 252 251 250 250 248 247 246 245 245 245 244 243 243 243 244 246 247 248 249 250 251 253 255 256 258 259 260 260 261 261 262 263 264 266 267 268 269 270 271 271 272 272 272 272 271 271 270 270 270 269 269 269 269 269 268 267 266 266
253 254 253 254 255 255 254 254 253 253 254 254 253 252 251 251 252 253 253 252 252 253 253 253 254 254 255 255 255 254 253 252 252 251 250 249 248 248 247 247 246 247 247 248 250 251 252 254 256 257 258 259 260 260 261 261 262 262 263 264 266 267 268 269 271 272 273 273 274 274 274 274 273 273 272 272 271 270 269 268 267 266 265 264 264 265
254 254 254 254 253 253 253 253 252 252 254 256 256 255 255 255 255 255 255 254 254 255 255 255 255 256 257 258 258 258 258 258 256 254 252 251 250 249 249 249 249 249 249 250 251 253 254 255 256 257 258 259 260 261 262 263 264 265 266 267 268 269 270 271 272 272 273 274 274 274 275 274 274 274 274 273 272 271 269 268 266 265 263 262 262 263
252 252 253 252 250 249 250 251 251 252 253 256 257 256 254 253 252 252 253 253 251 251 251 253 254 256 258 259 260 260 260 260 259 257 255 254 252 250 249 249 249 250 250 251 252 253 255 256 257 258 259 259 260 262 263 264 265 266 267 268 269 270 270 270 271 271 272 272 273 274 274 274 274 274 274 274 273 272 271 269 267 265 263 262 261 259
249 250 251 251 248 248 250 250 251 251 252 253 253 252 249 247 247 249 250 249 248 249 250 252 254 256 258 258 259 259 259 259 258 258 257 256 255 254 253 252 252 252 252 252 253 254 255 256 257 258 259 260 261 262 263 264 265 266 267 268 269 269 269 269 270 270 270 271 271 272 272 272 272 272 272 272 272 271 271 270 268 266 264 262 261 259
249 248 248 249 249 249 249 250 250 251 251 249 248 245 242 242 245 249 251 252 253 254 255 256 257 257 257 257 258 258 257 257 257 256 256 256 256 256 256 256 256 256 256 256 256 256 256 257 258 259 260 261 261 262 263 264 264 265 266 267 268 268 269 269 269 269 269 270 270 270 270 270 271 271 270 270 270 270 270 269 269 268 266 264 262 260
252 250 249 249 249 249 248 249 250 250 250 249 247 245 244 246 250 254 256 259 259 260 260 260 259 259 258 258 258 257 257 257 257 256 256 256 257 257 258 258 259 259 259 259 259 260 260 260 261 262 262 263 263 264 264 265 265 265 266 266 267 267 268 268 268 269 269 269 269 269 269 269 269 269 269 269 268 268 267 267 267 266 266 264 262 260
254 253 252 251 250 250 250 249 250 250 250 249 249 249 249 251 254 256 258 260 260 261 261 261 261 260 260 259 259 258 258 258 258 258 259 259 260 260 260 261 261 262 262 262 263 263 264 264 265 265 265 266 266 267 267 267 267 267 267 267 268 268 268 268 268 268 269 269 269 270 270 269 268 267 266 266 265 265 264 264 264 263 263 263 261 259
254 254 253 253 252 251 251 251 250 250 250 250 250 250 252 254 255 257 258 259 260 260 261 261 262 262 262 262 261 261 261 261 261 262 262 262 263 263 263 264 264 264 265 265 265 266 266 266 267 267 267 268 268 268 269 269 269 269 269 270 270 270 270 270 270 270 269 269 269 269 269 269 268 268 266 265 263 262 261 261 261 260 260 260 259 258
256 254 254 253 253 253 253 252 252 252 251 252 252 252 253 255 256 258 259 259 260 260 261 262 262 263 263 263 263 262 262 262 262 262 262 263 263 263 263 264 264 264 265 266 266 267 268 268 269 269 270 271 271 271 272 272 274 275 275 275 275 274 273 272 272 271 270 269 268 268 267 267 266 266 266 265 264 262 260 258 258 258 257 257 256 255
259 258 256 257 257 256 255 254 254 254 254 254 254 255 256 257 258 259 260 261 261 262 263 263 264 265 265 265 266 266 266 266 266 266 266 266 267 267 267 268 268 269 270 270 271 272 273 274 274 275 276 277 277 277 278 279 280 281 280 280 279 278 276 275 274 273 272 271 269 268 267 266 265 264 263 263 262 261 260 258 256 255 255 254 253 253
263 262 260 259 259 258 258 257 256 256 256 256 256 257 257 258 258 259 260 260 261 262 263 263 265 266 266 267 267 268 268 268 268 268 268 268 268 268 268 268 269 270 271 272 272 273 274 275 275 276 277 278 279 280 281 282 282 282 281 281 280 279 279 278 277 276 275 273 272 270 269 267 266 265 263 262 261 260 259 258 256 254 252 251 251 251
266 264 262 260 260 261 262 261 260 258 258 258 257 256 256 256 256 256 257 257 258 258 259 259 260 261 261 262 262 262 262 263 263 263 264 264 265 266 267 267 268 270 271 272 273 274 275 275 276 277 277 278 279 280 281 281 281 280 280 279 279 278 277 276 276 275 274 273 272 271 269 268 266 265 264 262 261 260 259 257 256 255 252 250 249 248